(367376) = 2008 GD142

Discovered at Catalina on 2008-04-07 by CSS.

Orbit

Orbit type: Main Belt

Note: WebGL enabled browser required.

epoch2023-09-13.0
epoch JD2460200.5
perihelion date2021-11-16.59021
perihelion JD2459535.09021
argument of perihelion (°)140.69921
ascending node (°)114.35953
inclination (°)12.03166
eccentricity0.1544641
perihelion distance (AU)2.2628773
Tisserand w.r.t. Jupiter3.3
ΔV w.r.t. Earth (km/sec)10.1
semimajor axis (AU)2.6762641
mean anomaly (°)149.79578
mean daily motion (°/day)0.22511810
aphelion distance (AU)3.090
period (years)4.38
P-vector [x]-0.24515335
P-vector [y]-0.93371645
P-vector [z]-0.26090886
Q-vector [x]0.95070490
Q-vector [y]-0.17882188
Q-vector [z]-0.25334350
absolute magnitude16.46
phase slope0.15
uncertainty0
referenceMPEC 2024-A74
observations used398
oppositions14
arc length (days)7646
first opposition used2003
last opposition used2024
residual rms (arc-secs)0.73
perturbers coarse indicatorM-v
perturbers precise indicator003Ek
first observation date used2003-01-31.0
last observation date used2024-01-07.0
computer nameMPCLINUX
JD of orbit computation2456966.909182
perihelion JD uncertainty (days)8.7696E-05
argument of perihelion uncertainty (°)2.8797E-05
ascending node uncertainty (°)1.9692E-05
inclination uncertainty (°)6.1748E-06
eccentricity uncertainty 6.7600E-08
perihelion distance uncertainty (AU)1.5303E-07
Minimum Orbit Intersection Distances (in AU)
for orbit epoch: 2460200.5, reference: E2024-A74
Mercury1.80645
Venus1.54545
Earth1.26024
Mars0.81451
Jupiter2.03625
Saturn5.98758
Uranus15.7024
Neptune26.8584

Observations

412 total observations over interval: 2003 01 31.29977 – 2024 01 07.370080
These data are available for download (format description).

Date (UT) J2000 RA J2000 Dec Magn Location Ref
2003 01 31.29977 09 10 11.94 +22 16 42.2 20.9   644 – Palomar Mountain/NEAT MPS 420352
2003 01 31.38194 09 10 07.26 +22 17 20.9 20.7   644 – Palomar Mountain/NEAT MPS 420352
2003 01 31.45482 09 10 03.15 +22 17 55.1 20.9   644 – Palomar Mountain/NEAT MPS 420352
2006 11 17.46106 07 24 34.16 +16 38 47.3 21.4 V G96 – Mt. Lemmon Survey MPS 420352
2006 11 17.46721 07 24 34.09 +16 38 47.8 22.1 V G96 – Mt. Lemmon Survey MPS 420352
2006 11 17.47336 07 24 34.05 +16 38 48.8 20.7 V G96 – Mt. Lemmon Survey MPS 420352
2006 11 17.47942 07 24 33.98 +16 38 49.6 20.4 V G96 – Mt. Lemmon Survey MPS 420352
2008 04 07.41148 14 01 01.27 +09 25 27.6 19.2 V 703 – Catalina Sky Survey MPS 303384
2008 04 07.41652 14 01 01.05 +09 25 30.6 19.4 V 703 – Catalina Sky Survey MPS 303384
2008 04 07.42154 14 01 00.80 +09 25 31.9 19.5 V 703 – Catalina Sky Survey MPS 303384
2008 04 07.42654 14 01 00.55 +09 25 34.1 19.3 V 703 – Catalina Sky Survey MPS 303384
2008 04 16.29499 13 53 53.44 +10 18 01.3 19.5 V 703 – Catalina Sky Survey MPS 303384
2008 04 16.30050 13 53 53.16 +10 18 01.0 19.0 V 703 – Catalina Sky Survey MPS 303384
2008 04 16.30602 13 53 52.94 +10 18 05.5 19.9 V 703 – Catalina Sky Survey MPS 303384
2008 04 16.31154 13 53 52.65 +10 18 06.1 19.5 V 703 – Catalina Sky Survey MPS 303384
2008 04 29.36804 13 43 02.20 +11 01 02.0 19.8 V 703 – Catalina Sky Survey MPS 303384
2008 04 29.37609 13 43 01.77 +11 01 03.1 19.8 V 703 – Catalina Sky Survey MPS 303384
2008 04 29.38416 13 43 01.41 +11 01 03.0 19.9 V 703 – Catalina Sky Survey MPS 303384
2008 04 29.39218 13 43 00.84 +11 01 04.3 19.4 V 703 – Catalina Sky Survey MPS 303384
2008 05 05.30543 13 38 33.10 +11 04 43.6 19.5 V 703 – Catalina Sky Survey MPS 303384
2008 05 05.31306 13 38 32.67 +11 04 42.6 19.5 V 703 – Catalina Sky Survey MPS 303384
2008 05 05.32067 13 38 32.31 +11 04 42.7 19.8 V 703 – Catalina Sky Survey MPS 303384
2008 05 05.32828 13 38 31.95 +11 04 43.2 19.8 V 703 – Catalina Sky Survey MPS 303384
2009 09 24.29615 23 39 24.84 -19 50 14.8 20.2 V 703 – Catalina Sky Survey MPS 426510
2009 09 24.30252 23 39 24.66 -19 50 16.6 20.0 V 703 – Catalina Sky Survey MPS 426510
2009 09 24.30895 23 39 24.44 -19 50 18.2 20.2 V 703 – Catalina Sky Survey MPS 426510
2009 09 24.31529 23 39 24.12 -19 50 19.4 20.1 V 703 – Catalina Sky Survey MPS 426510
2012 01 21.46955 11 12 47.333 +15 37 07.49 21.2 w F51 – Pan-STARRS 1, Haleakala MPS 420352
2012 01 21.48364 11 12 47.157 +15 37 13.91 21.2 w F51 – Pan-STARRS 1, Haleakala MPS 420352
2012 01 21.49777 11 12 47.029 +15 37 20.24 21.3 w F51 – Pan-STARRS 1, Haleakala MPS 420352
2012 02 16.29603 11 01 05.88 +19 29 08.3 19.9 R H15 – ISON-NM Observatory, Mayhill MPS 420352
2012 02 16.31116 11 01 05.20 +19 29 16.6 20.0 R H15 – ISON-NM Observatory, Mayhill MPS 420352
2012 02 16.32759 11 01 04.50 +19 29 26.8 19.8 R H15 – ISON-NM Observatory, Mayhill MPS 420352
2012 02 16.34199 11 01 03.77 +19 29 35.9 20.1 R H15 – ISON-NM Observatory, Mayhill MPS 420352
2012 03 17.20816 10 36 28.18 +23 27 12.7 20.2 V G96 – Mt. Lemmon Survey MPS 420352
2012 03 17.21547 10 36 27.82 +23 27 15.0 20.2 V G96 – Mt. Lemmon Survey MPS 420352
2012 03 17.22293 10 36 27.46 +23 27 17.6 20.1 V G96 – Mt. Lemmon Survey MPS 420352
2012 03 17.23042 10 36 27.10 +23 27 19.8 20.4 V G96 – Mt. Lemmon Survey MPS 420352
2013 04 21.60521 20 12 32.134 -15 27 05.05 21.2 w F51 – Pan-STARRS 1, Haleakala MPS 465013
2013 04 21.61004 20 12 32.501 -15 27 04.71 21.0 w F51 – Pan-STARRS 1, Haleakala MPS 465013
2013 04 21.61491 20 12 32.851 -15 27 04.18 21.1 w F51 – Pan-STARRS 1, Haleakala MPS 465013
2013 04 21.61975 20 12 33.216 -15 27 03.69 21.0 w F51 – Pan-STARRS 1, Haleakala MPS 465013
2013 06 27.40150 20 46 35.65 -18 11 32.8 20.6 V 691 – Steward Observatory, Kitt Peak-Spacewatch MPS 471177
2013 06 27.41919 20 46 35.17 -18 11 41.6 20.6 V 691 – Steward Observatory, Kitt Peak-Spacewatch MPS 471177
2013 06 27.43689 20 46 34.74 -18 11 49.8 20.1 V 691 – Steward Observatory, Kitt Peak-Spacewatch MPS 471177
2013 07 01.48229 20 44 47.338 -18 44 34.50 19.6 r F51 – Pan-STARRS 1, Haleakala MPS 471355
2013 07 01.51614 20 44 46.246 -18 44 51.51 19.6 i F51 – Pan-STARRS 1, Haleakala MPS 471355
2013 07 08.30556 20 40 49.81 -19 44 22.1 19.2 R H15 – ISON-NM Observatory, Mayhill MPS 471799
2013 07 08.32646 20 40 49.04 -19 44 32.6 19.1 R H15 – ISON-NM Observatory, Mayhill MPS 471799
2013 07 08.33689 20 40 48.56 -19 44 38.3 19.4 R H15 – ISON-NM Observatory, Mayhill MPS 471799
2013 07 13.46361 20 37 10.755 -20 32 07.02 19.3 w F51 – Pan-STARRS 1, Haleakala MPS 472115
2013 07 13.47749 20 37 10.088 -20 32 14.85 19.4 w F51 – Pan-STARRS 1, Haleakala MPS 472115
2013 07 13.49707 20 37 09.150 -20 32 25.91 19.4 w F51 – Pan-STARRS 1, Haleakala MPS 472115
2013 07 13.51168 20 37 08.449 -20 32 34.09 19.3 w F51 – Pan-STARRS 1, Haleakala MPS 472115
2013 07 14.45004 20 36 25.703 -20 41 24.09 19.8 g F51 – Pan-STARRS 1, Haleakala MPS 472115
2013 07 14.46083 20 36 25.171 -20 41 30.20 19.8 g F51 – Pan-STARRS 1, Haleakala MPS 472115
2013 07 27.50572 20 25 31.94 -22 43 36.9 19.2 V E12 – Siding Spring Survey MPS 472984
2013 07 27.51632 20 25 31.36 -22 43 43.0 19.0 V E12 – Siding Spring Survey MPS 472984
2013 07 27.53863 20 25 30.14 -22 43 55.3 18.8 V E12 – Siding Spring Survey MPS 472984
2013 08 02.39731 20 20 28.112 -23 35 31.20 19.3 w F51 – Pan-STARRS 1, Haleakala MPS 473672
2013 08 02.41096 20 20 27.387 -23 35 38.14 19.3 w F51 – Pan-STARRS 1, Haleakala MPS 473672
2013 08 02.42461 20 20 26.658 -23 35 45.09 19.4 w F51 – Pan-STARRS 1, Haleakala MPS 473672
2013 08 02.43826 20 20 25.932 -23 35 52.02 19.3 w F51 – Pan-STARRS 1, Haleakala MPS 473672
2014 10 29.41341 03 27 22.016 +01 41 43.11 20.8 w F51 – Pan-STARRS 1, Haleakala MPS 544189
2014 10 29.42634 03 27 21.345 +01 41 40.31 20.9 w F51 – Pan-STARRS 1, Haleakala MPS 544189
2014 10 29.42700 03 27 21.323 +01 41 40.31 20.7 w F51 – Pan-STARRS 1, Haleakala MPS 544189
2014 10 29.43919 03 27 20.701 +01 41 37.74 21.0 w F51 – Pan-STARRS 1, Haleakala MPS 544189
2014 10 29.43984 03 27 20.673 +01 41 37.50 21.0 w F51 – Pan-STARRS 1, Haleakala MPS 544189
2014 10 29.45211 03 27 20.029 +01 41 34.75 20.9 w F51 – Pan-STARRS 1, Haleakala MPS 544189
2014 10 29.45276 03 27 20.014 +01 41 34.93 20.8 w F51 – Pan-STARRS 1, Haleakala MPS 544189
2014 11 24.34727 03 04 31.201 +00 49 27.30 21.0 w F51 – Pan-STARRS 1, Haleakala MPS 549535
2014 11 24.36236 03 04 30.425 +00 49 27.11 20.9 w F51 – Pan-STARRS 1, Haleakala MPS 549535
2014 11 24.37749 03 04 29.643 +00 49 27.14 20.8 w F51 – Pan-STARRS 1, Haleakala MPS 549535
2014 11 24.39273 03 04 28.854 +00 49 27.05 20.8 w F51 – Pan-STARRS 1, Haleakala MPS 549535
2014 12 11.27176 02 52 31.116 +01 10 29.11 21.2 w F51 – Pan-STARRS 1, Haleakala MPS 552996
2014 12 11.28322 02 52 30.711 +01 10 30.69 21.2 w F51 – Pan-STARRS 1, Haleakala MPS 552996
2014 12 11.30626 02 52 29.902 +01 10 34.32 21.0 w F51 – Pan-STARRS 1, Haleakala MPS 552996
2015 12 08.52883 08 47 53.60 +17 41 42.9 21.5 V G96 – Mt. Lemmon Survey MPS 659576
2015 12 08.53293 08 47 53.58 +17 41 43.9 21.4 V G96 – Mt. Lemmon Survey MPS 659576
2015 12 08.54115 08 47 53.54 +17 41 46.4 20.9 V G96 – Mt. Lemmon Survey MPS 659577
2015 12 18.48019 08 45 49.72 +18 21 31.1 20.9 V G96 – Mt. Lemmon Survey MPS 663888
2015 12 18.48554 08 45 49.58 +18 21 33.2 21.1 V G96 – Mt. Lemmon Survey MPS 663888
2015 12 18.49088 08 45 49.51 +18 21 34.2 21.2 V G96 – Mt. Lemmon Survey MPS 663888
2015 12 18.49623 08 45 49.40 +18 21 35.7 21.7 V G96 – Mt. Lemmon Survey MPS 663888
2016 01 03.41293 08 37 26.051 +19 50 01.62 20.8 w F51 – Pan-STARRS 1, Haleakala MPS 668146
2016 01 03.42456 08 37 25.534 +19 50 06.03 20.6 w F51 – Pan-STARRS 1, Haleakala MPS 668146
2016 01 03.43619 08 37 25.029 +19 50 10.63 20.8 w F51 – Pan-STARRS 1, Haleakala MPS 668146
2016 01 14.25726 08 28 41.35 +21 02 09.3 20.8 R V30 – Heaven on Earth Observatory, Mayhill MPS 671582
2016 01 14.27619 08 28 40.29 +21 02 16.5 19.8 R V30 – Heaven on Earth Observatory, Mayhill MPS 671582
2016 01 14.29514 08 28 39.39 +21 02 24.9 20.4 R V30 – Heaven on Earth Observatory, Mayhill MPS 671582
2016 01 18.75771 08 24 34.66 +21 33 05.9 20.1 R D29 – Purple Mountain Observatory, XuYi Station MPS 673837
